�������l�o���
Date,Time,MP-1(��Sv/h),MP-2(��Sv/h),MP-3(��Sv/h),MP-4(��Sv/h),MP-5(��Sv/h),MP-6(��Sv/h),MP-7(��Sv/h),MP-8(��Sv/h),����,����(m/s),���J
2018/01/29,00:00,0.774,1.299,0.849,1.522,1.052,0.456,0.828,0.813,���쐼,8.7,��
2018/01/29,00:10,0.776,1.300,0.848,1.521,1.048,0.455,0.826,0.815,���쐼,9.2,��
2018/01/29,00:20,0.776,1.300,0.850,1.523,1.050,0.454,0.827,0.812,���쐼,7.7,��
2018/01/29,00:30,0.777,1.301,0.847,1.522,1.052,0.456,0.829,0.815,���쐼,6.2,��
2018/01/29,00:40,0.774,1.299,0.851,1.522,1.051,0.457,0.830,0.813,��,6.9,��
2018/01/29,00:50,0.774,1.300,0.849,1.523,1.052,0.459,0.829,0.811,���쐼,6.8,��
2018/01/29,01:00,0.778,1.298,0.849,1.520,1.053,0.457,0.829,0.814,���쐼,6.4,��
2018/01/29,01:10,0.778,1.299,0.850,1.521,1.053,0.458,0.830,0.815,���쐼,5.8,��
2018/01/29,01:20,0.776,1.300,0.849,1.520,1.054,0.457,0.829,0.814,���쐼,4.7,��
2018/01/29,01:30,0.778,1.303,0.849,1.525,1.054,0.459,0.827,0.812,�쐼,4.8,��
2018/01/29,01:40,0.777,1.300,0.849,1.523,1.052,0.458,0.829,0.811,�쐼,5.2,��
2018/01/29,01:50,0.777,1.299,0.850,1.524,1.054,0.457,0.829,0.814,��쐼,5.4,��
2018/01/29,02:00,0.775,1.300,0.849,1.523,1.051,0.458,0.830,0.814,��,6.1,��
2018/01/29,02:10,0.777,1.300,0.850,1.523,1.054,0.456,0.830,0.814,��,5.4,��
2018/01/29,02:20,0.776,1.301,0.851,1.524,1.054,0.457,0.829,0.814,��,5.1,��
2018/01/29,02:30,0.776,1.302,0.850,1.522,1.053,0.457,0.829,0.813,��,5.3,��
2018/01/29,02:40,0.777,1.300,0.850,1.525,1.053,0.457,0.829,0.815,��,5.6,��
2018/01/29,02:50,0.778,1.300,0.853,1.521,1.052,0.457,0.829,0.813,��,4.6,��
2018/01/29,03:00,0.778,1.303,0.851,1.525,1.054,0.457,0.829,0.814,��,4.5,��
2018/01/29,03:10,0.779,1.303,0.848,1.521,1.054,0.458,0.831,0.814,��쓌,4.6,��
2018/01/29,03:20,0.778,1.302,0.851,1.525,1.054,0.457,0.829,0.814,��쓌,5.1,��
2018/01/29,03:30,0.778,1.299,0.850,1.527,1.051,0.457,0.830,0.812,��쓌,4.3,��
2018/01/29,03:40,0.777,1.301,0.850,1.525,1.055,0.458,0.829,0.812,��쓌,2.6,��
2018/01/29,03:50,0.776,1.298,0.850,1.524,1.053,0.457,0.829,0.813,��쓌,2.0,��
2018/01/29,04:00,0.778,1.304,0.851,1.522,1.052,0.457,0.829,0.814,�쐼,1.1,��
2018/01/29,04:10,0.776,1.302,0.849,1.525,1.052,0.457,0.829,0.813,��,2.8,��
2018/01/29,04:20,0.774,1.301,0.849,1.524,1.052,0.458,0.828,0.814,���k��,3.6,��
2018/01/29,04:30,0.777,1.302,0.851,1.524,1.051,0.457,0.829,0.812,�k��,3.9,��
2018/01/29,04:40,0.775,1.302,0.849,1.524,1.052,0.456,0.828,0.815,�k��,6.1,��
2018/01/29,04:50,0.776,1.301,0.849,1.525,1.052,0.456,0.832,0.813,���k��,5.7,��
2018/01/29,05:00,0.777,1.299,0.851,1.527,1.053,0.457,0.830,0.810,�k��,6.2,��
2018/01/29,05:10,0.778,1.302,0.850,1.524,1.052,0.457,0.830,0.815,�k��,6.6,��
2018/01/29,05:20,0.776,1.301,0.849,1.522,1.053,0.457,0.827,0.813,�k�k��,5.4,��
2018/01/29,05:30,0.776,1.300,0.849,1.525,1.053,0.457,0.830,0.814,�k�k��,6.2,��
2018/01/29,05:40,0.776,1.301,0.848,1.526,1.051,0.457,0.828,0.813,�k�k��,7.1,��
2018/01/29,05:50,0.776,1.301,0.847,1.525,1.052,0.456,0.828,0.812,�k�k��,7.5,��
2018/01/29,06:00,0.775,1.301,0.849,1.526,1.051,0.456,0.827,0.813,�k�k��,8.1,��
2018/01/29,06:10,0.774,1.303,0.847,1.524,1.050,0.456,0.829,0.813,�k�k��,7.4,��
2018/01/29,06:20,0.774,1.302,0.851,1.523,1.050,0.455,0.827,0.813,�k,8.5,��
2018/01/29,06:30,0.775,1.302,0.849,1.525,1.051,0.455,0.828,0.812,�k�k��,8.2,��
2018/01/29,06:40,0.774,1.300,0.846,1.522,1.050,0.456,0.828,0.814,�k,6.7,��
2018/01/29,06:50,0.773,1.300,0.845,1.523,1.050,0.456,0.829,0.814,�k,6.8,��
2018/01/29,07:00,0.775,1.299,0.849,1.524,1.052,0.455,0.827,0.813,�k,6.3,��
2018/01/29,07:10,0.774,1.300,0.848,1.522,1.051,0.456,0.829,0.812,�k�k��,6.5,��
2018/01/29,07:20,0.773,1.300,0.847,1.524,1.050,0.454,0.827,0.813,�k�k��,6.9,��
2018/01/29,07:30,0.774,1.301,0.849,1.523,1.051,0.455,0.829,0.812,�k�k��,7.3,��
2018/01/29,07:40,0.774,1.302,0.849,1.523,1.050,0.456,0.827,0.812,�k�k��,8.3,��
2018/01/29,07:50,0.773,1.299,0.846,1.528,1.050,0.456,0.828,0.813,�k�k��,8.5,��
2018/01/29,08:00,0.773,1.298,0.847,1.526,1.050,0.455,0.828,0.813,�k�k��,9.4,��
2018/01/29,08:10,0.773,1.299,0.847,1.526,1.050,0.455,0.829,0.812,�k�k��,10.4,��
2018/01/29,08:20,0.775,1.300,0.848,1.524,1.049,0.455,0.827,0.814,�k�k��,10.9,��
2018/01/29,08:30,0.776,1.300,0.847,1.523,1.051,0.456,0.829,0.813,�k�k��,8.7,��
2018/01/29,08:40,0.774,1.301,0.848,1.525,1.051,0.454,0.828,0.813,�k�k��,10.0,��
2018/01/29,08:50,0.777,1.297,0.847,1.525,1.051,0.453,0.828,0.811,�k�k��,10.9,��
2018/01/29,09:00,0.775,1.298,0.848,1.523,1.051,0.453,0.830,0.814,�k�k��,11.9,��
2018/01/29,09:10,0.778,1.300,0.849,1.524,1.052,0.453,0.827,0.814,�k�k��,10.2,��
2018/01/29,09:20,0.776,1.297,0.847,1.526,1.052,0.453,0.830,0.813,�k�k��,8.5,��
2018/01/29,09:30,0.778,1.302,0.839,1.528,1.052,0.454,0.829,0.814,�k�k��,7.5,��
2018/01/29,09:40,0.778,1.302,0.841,1.528,1.053,0.453,0.828,0.814,�k�k��,5.4,��
2018/01/29,09:50,0.780,1.302,0.844,1.526,1.051,0.454,0.828,0.814,�k�k��,4.5,��
2018/01/29,10:00,0.778,1.304,0.838,1.527,1.053,0.455,0.828,0.813,�k�k��,4.4,��
2018/01/29,10:10,0.779,1.303,0.840,1.528,1.053,0.455,0.828,0.813,�k�k��,4.4,��
2018/01/29,10:20,0.782,1.303,0.842,1.524,1.054,0.456,0.828,0.815,�k,5.5,��
2018/01/29,10:30,0.779,1.303,0.840,1.524,1.054,0.457,0.829,0.815,�k�k��,6.4,��
2018/01/29,10:40,0.783,1.303,0.841,1.524,1.054,0.457,0.827,0.814,�k�k��,6.6,��
2018/01/29,10:50,0.783,1.304,0.844,1.523,1.056,0.457,0.829,0.813,�k��,7.9,��
2018/01/29,11:00,0.781,1.304,0.845,-,1.058,0.457,0.828,0.815,�k�k��,6.3,��
2018/01/29,11:10,0.779,1.307,0.847,-,1.056,0.458,0.828,0.814,�k�k��,5.1,��
2018/01/29,11:20,0.782,1.307,0.846,-,1.060,0.458,0.827,0.815,�k�k��,3.8,��
2018/01/29,11:30,0.780,1.304,0.849,-,1.061,0.459,0.827,0.815,�k�k��,3.8,��
2018/01/29,11:40,0.781,1.308,0.849,-,1.062,0.459,0.827,0.814,�k�k��,4.1,��
2018/01/29,11:50,0.784,1.309,0.849,-,1.061,0.459,0.828,0.817,�k�k��,6.3,��
2018/01/29,12:00,0.787,1.315,0.846,-,1.061,0.459,0.827,0.815,�k�k��,5.4,��
2018/01/29,12:10,0.793,1.315,0.850,-,1.061,0.459,0.830,0.816,�k�k��,6.0,��
2018/01/29,12:20,0.793,1.315,0.853,-,1.064,0.459,0.828,0.816,�k�k��,7.1,��
2018/01/29,12:30,0.796,1.314,0.855,-,1.066,0.458,0.829,0.816,�k,7.1,��
2018/01/29,12:40,0.798,1.316,0.856,-,1.064,0.460,0.829,0.816,�k,6.8,��
2018/01/29,12:50,0.798,1.316,0.855,-,1.068,0.461,0.828,0.816,�k,9.3,��
2018/01/29,13:00,0.799,1.315,0.856,-,1.069,0.459,0.829,0.815,�k�k��,11.1,��
2018/01/29,13:10,0.799,1.321,0.856,-,1.068,0.461,0.830,0.816,�k�k��,10.0,��
2018/01/29,13:20,0.802,1.322,0.856,-,1.069,0.460,0.831,0.816,�k�k��,10.0,��
2018/01/29,13:30,0.803,1.321,0.858,-,1.070,0.460,0.831,0.816,�k�k��,9.6,��
2018/01/29,13:40,0.805,1.323,0.857,-,1.068,0.462,0.832,0.818,�k�k��,9.0,��
2018/01/29,13:50,0.805,1.326,0.857,-,1.070,0.460,0.832,0.816,�k�k��,10.7,��
2018/01/29,14:00,0.805,1.329,0.857,-,1.073,0.463,0.831,0.817,�k�k��,10.3,��
2018/01/29,14:10,0.806,1.330,0.861,-,1.074,0.462,0.833,0.818,�k�k��,10.6,��
2018/01/29,14:20,0.804,1.332,0.860,-,1.074,0.460,0.833,0.819,�k�k��,10.3,��
2018/01/29,14:30,0.804,1.329,0.858,-,1.074,0.462,0.831,0.817,�k�k��,9.2,��
2018/01/29,14:40,0.804,1.334,0.859,-,1.076,0.462,0.832,0.819,�k�k��,10.0,��
2018/01/29,14:50,0.807,1.333,0.858,-,1.075,0.462,0.832,0.818,�k�k��,8.0,��
2018/01/29,15:00,0.808,1.334,0.858,-,1.077,0.463,0.834,0.818,�k,6.5,��
2018/01/29,15:10,0.805,1.336,0.861,-,1.077,0.463,0.834,0.818,�k�k��,6.2,��
2018/01/29,15:20,0.805,1.336,0.861,-,1.077,0.463,0.835,0.817,�k�k��,6.1,��
2018/01/29,15:30,0.808,1.337,0.860,-,1.076,0.462,0.833,0.816,�k,6.4,��
2018/01/29,15:40,0.808,1.336,0.861,1.534,1.077,0.463,0.835,0.818,�k,5.6,��
2018/01/29,15:50,0.809,1.341,0.862,1.541,1.077,0.463,0.834,0.819,�k,6.2,��
2018/01/29,16:00,0.809,1.338,0.861,1.544,1.079,0.463,0.835,0.818,�k,5.3,��
2018/01/29,16:10,0.808,1.339,0.862,1.543,1.078,0.464,0.833,0.817,�k�k��,6.0,��
2018/01/29,16:20,0.811,1.341,0.860,1.545,1.080,0.463,0.835,0.817,�k�k��,6.1,�L
2018/01/29,16:30,0.809,1.339,0.862,1.544,1.079,0.462,0.834,0.818,�k�k��,5.6,�L
2018/01/29,16:40,0.809,1.341,0.864,1.548,1.080,0.463,0.833,0.817,�k,6.3,�L
2018/01/29,16:50,0.810,1.340,0.862,1.545,1.080,0.463,0.836,0.816,�k�k��,5.9,�L
2018/01/29,17:00,0.807,1.344,0.862,1.545,1.079,0.464,0.834,0.818,�k,6.0,�L
2018/01/29,17:10,0.808,1.341,0.861,1.545,1.077,0.462,0.834,0.816,�k,5.4,�L
2018/01/29,17:20,0.807,1.342,0.863,1.546,1.078,0.462,0.832,0.816,�k,4.4,�L
2018/01/29,17:30,0.810,1.340,0.862,1.547,1.079,0.464,0.833,0.817,�k,4.2,�L
2018/01/29,17:40,0.809,1.340,0.861,1.545,1.079,0.462,0.833,0.818,�k�k��,4.6,�L
2018/01/29,17:50,0.809,1.342,0.862,1.544,1.078,0.463,0.832,0.818,�k�k��,4.7,�L
2018/01/29,18:00,0.809,1.341,0.861,1.546,1.080,0.463,0.835,0.818,�k��,4.2,�L
2018/01/29,18:10,0.808,1.341,0.862,1.546,1.079,0.464,0.831,0.815,�k��,4.8,�L
2018/01/29,18:20,0.807,1.340,0.860,1.545,1.076,0.463,0.833,0.817,�k��,5.6,�L
2018/01/29,18:30,0.807,1.339,0.860,1.545,1.079,0.462,0.833,0.818,�k��,5.5,�L
2018/01/29,18:40,0.810,1.341,0.860,1.544,1.080,0.461,0.834,0.817,�k��,5.9,�L
2018/01/29,18:50,0.809,1.338,0.861,1.545,1.080,0.462,0.833,0.817,�k��,5.3,��
2018/01/29,19:00,0.809,1.341,0.860,1.545,1.076,0.464,0.832,0.817,�k��,5.0,�L
2018/01/29,19:10,0.810,1.339,0.861,1.545,1.079,0.462,0.832,0.816,�k��,4.0,�L
2018/01/29,19:20,0.809,1.341,0.860,1.543,1.078,0.463,0.834,0.818,�k��,2.8,�L
2018/01/29,19:30,0.811,1.339,0.859,1.546,1.078,0.462,0.832,0.816,�k��,3.1,�L
2018/01/29,19:40,0.811,1.338,0.862,1.545,1.080,0.463,0.834,0.817,�k��,3.4,��
2018/01/29,19:50,0.810,1.337,0.860,1.545,1.077,0.464,0.834,0.818,���k��,2.8,��
2018/01/29,20:00,0.809,1.340,0.860,1.547,1.079,0.464,0.833,0.816,�k��,2.3,��
2018/01/29,20:10,0.809,1.341,0.860,1.546,1.078,0.463,0.833,0.816,�k��,2.9,��
2018/01/29,20:20,0.809,1.341,0.860,1.544,1.078,0.462,0.834,0.816,�k��,3.0,��
2018/01/29,20:30,0.808,1.337,0.861,1.544,1.075,0.462,0.833,0.818,�k�k��,2.8,��
2018/01/29,20:40,0.811,1.339,0.860,1.544,1.076,0.461,0.833,0.818,�k�k��,2.6,��
2018/01/29,20:50,0.809,1.339,0.860,1.545,1.078,0.462,0.832,0.816,�k�k��,2.5,��
2018/01/29,21:00,0.810,1.340,0.859,1.547,1.077,0.463,0.832,0.816,�k�k��,2.6,��
2018/01/29,21:10,0.810,1.337,0.859,1.545,1.077,0.462,0.832,0.817,�k�k��,2.3,��
2018/01/29,21:20,0.810,1.340,0.861,1.544,1.078,0.461,0.834,0.816,�k�k��,3.0,��
2018/01/29,21:30,0.809,1.341,0.859,1.547,1.076,0.461,0.832,0.818,�k�k��,4.1,��
2018/01/29,21:40,0.811,1.339,0.859,1.546,1.078,0.464,0.833,0.818,�k�k��,4.2,��
2018/01/29,21:50,0.810,1.340,0.859,1.549,1.078,0.462,0.833,0.816,�k�k��,3.2,��
2018/01/29,22:00,0.809,1.340,0.860,1.548,1.079,0.463,0.833,0.818,�k�k��,3.8,��
2018/01/29,22:10,0.810,1.340,0.860,1.545,1.077,0.462,0.834,0.817,�k�k��,4.2,��
2018/01/29,22:20,0.808,1.340,0.862,1.545,1.077,0.461,0.832,0.818,�k�k��,4.2,��
2018/01/29,22:30,0.809,1.339,0.860,1.545,1.078,0.462,0.833,0.817,�k�k��,5.1,��
2018/01/29,22:40,0.810,1.340,0.862,1.547,1.078,0.462,0.831,0.819,�k�k��,5.6,��
2018/01/29,22:50,0.809,1.340,0.861,1.546,1.078,0.462,0.833,0.819,�k�k��,5.7,��
2018/01/29,23:00,0.808,1.339,0.860,1.548,1.080,0.461,0.834,0.818,�k�k��,6.1,��
2018/01/29,23:10,0.807,1.341,0.860,1.549,1.079,0.463,0.833,0.817,�k�k��,5.9,��
2018/01/29,23:20,0.808,1.338,0.860,1.548,1.076,0.462,0.833,0.817,�k�k��,8.1,��
2018/01/29,23:30,0.809,1.341,0.859,1.546,1.078,0.462,0.834,0.816,�k�k��,7.6,��
2018/01/29,23:40,0.808,1.340,0.858,1.548,1.077,0.461,0.832,0.816,�k�k��,8.3,��
2018/01/29,23:50,0.809,1.343,0.857,1.548,1.077,0.460,0.832,0.816,�k�k��,8.5,��
